Date,TemperatureHighF,TemperatureAvgF,TemperatureLowF,DewpointHighF,DewpointAvgF,DewpointLowF,HumidityHigh,HumidityAvg,HumidityLow,PressureMaxIn,PressureMinIn,WindSpeedMaxMPH,WindSpeedAvgMPH,GustSpeedMaxMPH,PrecipitationSumIn
2013-2-1,67.1,55.2,40.5,48.8,44.3,38.0,92,68,49,0.00,0.00,5,2,8,0.00
2013-2-2,60.4,46.0,38.2,49.0,42.6,36.7,96,89,63,0.00,0.00,6,2,9,0.00
2013-2-3,61.0,47.1,36.4,48.2,42.5,35.3,96,86,60,0.00,0.00,5,2,10,0.00
2013-2-4,40.7,39.7,37.5,39.5,38.5,36.2,96,96,95,0.00,0.00,2,1,4,0.00
2013-2-7,53.4,43.0,36.2,40.0,37.4,35.0,95,82,51,0.00,0.00,10,4,19,0.00
2013-2-8,59.5,43.9,32.7,39.7,34.8,30.1,97,75,33,0.00,0.00,9,3,18,0.23
2013-2-9,61.9,42.7,28.0,35.8,30.5,20.9,96,68,21,0.00,0.00,8,3,13,0.00
2013-2-10,63.7,41.8,28.1,45.3,34.2,26.9,96,78,39,0.00,0.00,7,2,13,0.00
2013-2-11,57.7,38.8,29.8,42.1,35.7,28.6,95,89,46,0.00,0.00,5,2,9,0.00
2013-2-12,62.2,45.2,32.5,46.7,39.9,31.9,98,84,48,0.00,0.00,6,2,10,0.00
2013-2-13,65.3,44.3,30.0,46.5,38.1,29.2,97,82,44,0.00,0.00,7,2,12,0.00
2013-2-14,70.0,47.8,34.8,52.1,40.6,34.0,97,80,39,0.00,0.00,7,2,11,0.00
2013-2-15,70.3,49.1,32.8,47.0,39.3,31.9,97,74,38,0.00,0.00,6,2,10,0.00
2013-2-16,55.9,41.1,34.9,44.6,38.6,33.7,96,91,65,0.00,0.00,3,1,5,0.00
2013-2-18,53.1,52.5,52.1,42.9,42.2,41.0,70,68,64,0.00,0.00,7,5,14,0.00
2013-2-19,51.3,44.2,33.5,41.5,35.0,30.2,94,71,49,0.00,0.00,12,6,26,0.00
2013-2-20,60.2,40.0,26.8,36.5,30.7,25.7,96,75,34,0.00,0.00,9,2,16,0.22
2013-2-26,69.9,52.3,36.1,41.1,35.2,23.6,92,59,19,0.00,0.00,8,4,12,0.00
2013-2-27,69.2,48.4,29.5,45.3,37.7,28.5,97,72,30,0.00,0.00,7,2,11,0.00
2013-2-28,70.8,54.0,40.8,54.5,47.5,39.3,95,81,51,0.00,0.00,8,3,12,0.00